This is the latest recevied weather packets stored in our database for station/object KE5OYL. If no packets are shown the sender has not sent any weather packets the latest 10 day(s).
| Time | Temp. | Humidity | Pressure | Rain* | Wind** | Luminosity | Snow |
|---|---|---|---|---|---|---|---|
| 1777729037 | 15° C | 75% | 1021.8 hPa | 0 mm | - | 204 W/m² | - |
| 1777728734 | 15° C | 76% | 1022.1 hPa | 0 mm | - | 189 W/m² | - |
| 1777728431 | 14.44° C | 78% | 1022.5 hPa | 0 mm | - | 175 W/m² | - |
| 1777728128 | 14.44° C | 78% | 1021.9 hPa | 0 mm | - | 160 W/m² | - |
| 1777727825 | 13.89° C | 79% | 1021.9 hPa | 0 mm | - | 148 W/m² | - |
| 1777727523 | 13.89° C | 80% | 1022 hPa | 0 mm | - | 134 W/m² | - |
| 1777727219 | 13.89° C | 80% | 1022.1 hPa | 0 mm | - | 122 W/m² | - |
| 1777726917 | 13.33° C | 81% | 1022.2 hPa | 0 mm | - | 109 W/m² | - |
| 1777726613 | 13.33° C | 80% | 1022 hPa | 0 mm | - | 63 W/m² | - |
| 1777726311 | 13.33° C | 81% | 1022.1 hPa | 0 mm | - | 84 W/m² | - |
| 1777726007 | 13.33° C | 80% | 1021.8 hPa | 0 mm | - | 74 W/m² | - |
| 1777725704 | 13.33° C | 79% | 1021.6 hPa | 0 mm | - | 64 W/m² | - |
| 1777725402 | 13.33° C | 79% | 1021.5 hPa | 0 mm | - | 56 W/m² | - |
| 1777725099 | 13.33° C | 80% | 1021.6 hPa | 0 mm | - | 47 W/m² | - |
| 1777724796 | 13.33° C | 80% | 1021.3 hPa | 0 mm | - | 39 W/m² | - |
| 1777724492 | 13.33° C | 80% | 1021.2 hPa | 0 mm | - | 34 W/m² | - |
| 1777724191 | 13.33° C | 80% | 1021 hPa | 0 mm | - | 29 W/m² | - |
| 1777723888 | 13.33° C | 80% | 1020.8 hPa | 0 mm | - | 25 W/m² | - |
| 1777723584 | 12.78° C | 80% | 1021 hPa | 0 mm | - | 21 W/m² | - |
| 1777723281 | 12.78° C | 80% | 1020.9 hPa | 0 mm | - | 17 W/m² | - |
| 1777722979 | 12.78° C | 80% | 1020.8 hPa | 0 mm | - | 13 W/m² | - |
| 1777722675 | 12.78° C | 80% | 1020.5 hPa | 0 mm | - | 10 W/m² | - |
| 1777722371 | 12.78° C | 79% | 1020.7 hPa | 0 mm | - | 6 W/m² | - |
| 1777722069 | 13.33° C | 79% | 1020.5 hPa | 0 mm | - | 4 W/m² | - |
| 1777721765 | 13.33° C | 78% | 1020.5 hPa | 0 mm | - | 2 W/m² | - |
* Rain latest hour (hover to see other rain measurements)
** Current wind speed in m/s (hover to see current wind gust speed)